TimeCST,TemperatureF,Dew PointF,Humidity,Sea Level PressureIn,VisibilityMPH,Wind Direction,Wind SpeedMPH,Gust SpeedMPH,PrecipitationIn,Events,Conditions,WindDirDegrees,DateUTC
12:15 AM,11.1,6.1,80,30.10,10.0,Calm,Calm,-,N/A,,Clear,0,2013-03-04 06:15:00
12:35 AM,12.0,7.3,81,30.10,10.0,Calm,Calm,-,N/A,,Clear,0,2013-03-04 06:35:00
12:55 AM,13.6,8.8,81,30.11,10.0,East,3.5,-,N/A,,Clear,90,2013-03-04 06:55:00
1:15 AM,14.9,9.5,79,30.10,10.0,East,3.5,-,N/A,,Clear,90,2013-03-04 07:15:00
1:35 AM,15.8,10.8,80,30.11,10.0,ESE,4.6,-,N/A,,Clear,110,2013-03-04 07:35:00
1:55 AM,15.6,10.9,82,30.10,10.0,ESE,3.5,-,N/A,,Clear,110,2013-03-04 07:55:00
2:15 AM,14.7,10.4,83,30.10,10.0,ESE,5.8,-,N/A,,Clear,110,2013-03-04 08:15:00
2:35 AM,15.4,11.3,84,30.09,10.0,ESE,6.9,-,N/A,,Clear,110,2013-03-04 08:35:00
3:15 AM,15.4,11.8,86,30.08,10.0,ESE,9.2,-,N/A,,Clear,110,2013-03-04 09:15:00
3:35 AM,16.5,12.7,85,30.07,10.0,ESE,6.9,-,N/A,,Clear,110,2013-03-04 09:35:00
3:55 AM,16.9,13.5,86,30.07,10.0,ESE,6.9,-,N/A,,Clear,120,2013-03-04 09:55:00
4:15 AM,16.7,13.1,86,30.07,10.0,ESE,8.1,-,N/A,,Clear,110,2013-03-04 10:15:00
4:35 AM,16.7,13.1,86,30.07,10.0,ESE,8.1,-,N/A,,Clear,110,2013-03-04 10:35:00
4:55 AM,17.6,13.8,85,30.07,10.0,ESE,6.9,-,N/A,,Mostly Cloudy,110,2013-03-04 10:55:00
5:15 AM,17.4,13.6,85,30.07,10.0,ESE,6.9,-,N/A,,Mostly Cloudy,120,2013-03-04 11:15:00
5:35 AM,18.5,14.7,85,30.07,10.0,ESE,8.1,-,N/A,,Mostly Cloudy,110,2013-03-04 11:35:00
6:15 AM,20.5,16.2,83,30.07,10.0,East,8.1,-,N/A,,Overcast,100,2013-03-04 12:15:00
6:35 AM,21.2,16.7,83,30.06,10.0,ESE,9.2,-,N/A,,Scattered Clouds,110,2013-03-04 12:35:00
6:55 AM,22.1,17.4,82,30.07,10.0,ESE,9.2,-,N/A,,Scattered Clouds,110,2013-03-04 12:55:00
7:15 AM,22.3,17.6,82,30.07,10.0,ESE,10.4,-,N/A,,Mostly Cloudy,110,2013-03-04 13:15:00
7:35 AM,22.8,18.3,83,30.07,10.0,ESE,10.4,-,N/A,,Mostly Cloudy,110,2013-03-04 13:35:00
7:55 AM,23.9,18.1,79,30.07,10.0,ESE,10.4,-,N/A,,Scattered Clouds,120,2013-03-04 13:55:00
8:15 AM,24.1,18.5,79,30.06,10.0,ESE,15.0,-,N/A,,Mostly Cloudy,110,2013-03-04 14:15:00
8:35 AM,24.6,19.4,81,30.06,10.0,ESE,13.8,-,N/A,,Scattered Clouds,110,2013-03-04 14:35:00
8:55 AM,25.5,19.9,79,30.06,10.0,ESE,12.7,-,N/A,,Mostly Cloudy,110,2013-03-04 14:55:00
9:15 AM,26.1,19.9,78,30.06,10.0,ESE,16.1,-,N/A,,Overcast,110,2013-03-04 15:15:00
9:35 AM,26.2,20.1,78,30.06,10.0,ESE,16.1,-,N/A,,Mostly Cloudy,110,2013-03-04 15:35:00
9:55 AM,26.6,20.7,78,30.06,10.0,ESE,15.0,-,N/A,,Mostly Cloudy,120,2013-03-04 15:55:00
10:15 AM,27.1,20.7,77,30.06,10.0,ESE,15.0,-,N/A,,Mostly Cloudy,120,2013-03-04 16:15:00
10:35 AM,27.5,21.0,77,30.05,10.0,ESE,13.8,-,N/A,,Scattered Clouds,110,2013-03-04 16:35:00
10:55 AM,28.2,21.0,74,30.05,10.0,ESE,15.0,-,N/A,,Scattered Clouds,120,2013-03-04 16:55:00
11:15 AM,27.9,21.9,78,30.04,2.5,SE,16.1,-,N/A,Rain,Freezing Rain,130,2013-03-04 17:15:00
11:55 AM,27.9,23.0,82,30.04,3.0,ESE,15.0,-,N/A,Rain,Freezing Rain,120,2013-03-04 17:55:00
12:15 PM,27.5,23.7,86,30.04,1.8,ESE,13.8,-,N/A,Rain,Freezing Rain,120,2013-03-04 18:15:00
12:55 PM,27.9,24.4,87,30.01,4.0,ESE,15.0,-,N/A,Rain,Freezing Rain,110,2013-03-04 18:55:00
1:15 PM,28.4,24.3,84,30.01,5.0,ESE,15.0,-,N/A,Rain,Freezing Rain,110,2013-03-04 19:15:00
1:35 PM,28.4,23.7,83,30.01,7.0,ESE,12.7,-,N/A,Rain,Freezing Rain,110,2013-03-04 19:35:00
1:55 PM,28.8,23.5,81,30.00,10.0,ESE,11.5,-,N/A,,Overcast,110,2013-03-04 19:55:00
2:15 PM,29.3,23.4,78,30.00,10.0,ESE,12.7,-,N/A,,Overcast,110,2013-03-04 20:15:00
2:35 PM,30.2,23.7,77,29.99,10.0,ESE,11.5,-,0.01,,Overcast,110,2013-03-04 20:35:00
2:55 PM,30.2,24.1,78,29.99,10.0,East,13.8,-,0.01,,Overcast,100,2013-03-04 20:55:00
3:15 PM,30.7,23.0,73,29.98,10.0,East,16.1,-,N/A,,Overcast,90,2013-03-04 21:15:00
3:35 PM,30.9,23.7,75,29.97,10.0,East,12.7,-,N/A,,Overcast,90,2013-03-04 21:35:00
3:55 PM,31.1,23.9,75,29.96,10.0,East,13.8,-,N/A,,Overcast,90,2013-03-04 21:55:00
4:15 PM,31.1,23.0,72,29.95,10.0,East,13.8,18.4,N/A,,Overcast,80,2013-03-04 22:15:00
4:35 PM,31.1,21.9,69,29.96,10.0,East,15.0,-,N/A,,Overcast,90,2013-03-04 22:35:00
4:55 PM,31.1,21.9,69,29.96,10.0,East,13.8,18.4,N/A,,Overcast,80,2013-03-04 22:55:00
5:15 PM,30.6,21.2,68,29.96,10.0,East,10.4,-,N/A,,Overcast,90,2013-03-04 23:15:00
5:35 PM,29.8,21.9,72,29.98,10.0,ENE,12.7,-,N/A,,Overcast,70,2013-03-04 23:35:00
5:55 PM,29.3,22.6,76,29.98,10.0,East,12.7,-,N/A,,Overcast,80,2013-03-04 23:55:00
6:15 PM,29.3,22.8,77,29.99,10.0,East,11.5,-,N/A,,Overcast,80,2013-03-05 00:15:00
6:55 PM,29.3,23.2,78,30.00,10.0,East,11.5,-,N/A,,Overcast,80,2013-03-05 00:55:00
7:15 PM,29.3,23.0,77,30.00,10.0,East,13.8,-,N/A,,Overcast,80,2013-03-05 01:15:00
7:35 PM,29.3,23.4,78,30.01,10.0,East,11.5,-,N/A,,Overcast,80,2013-03-05 01:35:00
7:55 PM,29.3,23.2,78,30.01,10.0,East,10.4,-,N/A,,Overcast,80,2013-03-05 01:55:00
8:35 PM,29.7,23.7,79,30.00,10.0,East,12.7,-,N/A,,Overcast,80,2013-03-05 02:35:00
8:55 PM,29.8,23.9,79,30.01,10.0,East,10.4,-,N/A,,Overcast,80,2013-03-05 02:55:00
9:15 PM,30.0,23.9,78,30.00,10.0,ENE,11.5,-,N/A,,Overcast,70,2013-03-05 03:15:00
9:35 PM,30.0,23.9,78,30.00,10.0,ENE,10.4,-,N/A,,Overcast,70,2013-03-05 03:35:00
9:55 PM,30.2,23.9,77,29.99,10.0,East,11.5,-,N/A,,Overcast,80,2013-03-05 03:55:00
10:15 PM,30.7,24.3,77,29.99,10.0,East,11.5,17.3,N/A,,Overcast,80,2013-03-05 04:15:00
10:35 PM,30.7,24.6,78,29.98,10.0,ENE,12.7,-,N/A,,Overcast,70,2013-03-05 04:35:00
10:55 PM,30.6,25.3,81,29.98,10.0,ENE,10.4,-,N/A,,Overcast,70,2013-03-05 04:55:00
11:15 PM,31.1,25.3,79,29.97,10.0,East,10.4,-,N/A,,Overcast,80,2013-03-05 05:15:00
11:35 PM,31.1,25.3,79,29.97,10.0,ENE,11.5,-,N/A,,Overcast,70,2013-03-05 05:35:00
11:55 PM,31.3,25.5,79,29.96,10.0,ENE,10.4,-,N/A,,Overcast,70,2013-03-05 05:55:00